Vertical_Velocity
-0 -1 -1 -0 -0 -1 -2 -2 -1 -0 0 -1 -0 -1 -1 -1 -1 -1 -1 -1 -1 -2 -2 -2 -2 -3 -2 -3 -2 -4 -3 -3 -4 -5 -3 -3 0 -3 -3 -1 -4 -5 0 -2 1 -5 -4
-0 0 0 -0 -0 -1 -2 -1 -1 -1 -1 -1 -0 -0 -0 -1 -1 -1 -0 -0 -2 -3 -2 -1 -1 -1 -2 3 -3 -3 -5 -6 -1 -2 -4 -4 -5 -3 -0 -5 1 -3 -4 -5 -2 -2 0
0 0 0 0 -0 -1 -1 -1 -1 -1 -1 -1 -1 -1 -0 -1 -1 -1 -1 -1 -2 -2 -0 -1 -2 -1 -1 -3 -3 -4 -6 -6 -4 -2 -3 -3 -0 -1 -3 -2 -0 -4 -1 2 -1 -1 -5
0 -0 -0 0 -0 -1 -1 -0 0 -1 -1 -1 -1 -0 0 -0 -1 -0 -1 -1 -2 -1 -1 -2 -1 -1 -3 -3 -4 -3 5 -3 -4 -5 -6 -3 -2 -4 -1 -4 -5 -0 -2 -12 2 -2 -4
-1 -0 -0 0 -0 -0 -0 -0 -0 -1 -1 -1 -1 -0 -1 -1 -0 1 -2 -2 -1 -0 -2 -1 -1 -3 -8 -3 4 -3 -4 -4 -6 -1 -2 -5 -1 -4 -0 -4 -2 -5 -6 -6 -11 -0 3
-0 0 -1 -1 -0 -0 -1 -1 -1 -0 -0 0 -1 -2 -1 -1 -0 -1 -2 -1 -2 0 -3 -0 -5 -1 -4 -3 -3 -6 -4 -3 -6 -4 -6 -3 -3 -0 0 -8 -4 -6 -3 -3 -1 -2 5
-0 -1 -1 -1 -0 -1 -0 0 -0 -0 0 -0 -1 -2 -1 -1 -1 -2 -3 -3 1 -1 -0 -0 -1 1 -0 -1 -2 -3 -3 -2 -4 -3 -6 -2 -2 -6 -5 -3 1 3 -1 -1 5 -1 -4
-0 -1 -1 -1 -0 0 1 0 -0 -1 -0 0 -1 -1 -1 -1 -1 -1 -2 -2 -1 2 -1 -1 -2 -3 -2 -3 -2 -2 -5 -4 -5 -6 -2 -2 -3 -2 2 1 -2 3 -4 -5 -5 9 1
-0 -1 -0 -0 -1 0 1 -0 -0 -0 0 -1 -0 -0 -1 -2 -2 -5 -2 0 -1 -0 -0 -2 -4 -2 -8 -6 -6 -5 -7 -4 -1 -2 -6 -2 -1 1 0 1 -5 3 -4 -6 -4 -10 4
-0 -1 -0 -0 -1 1 0 -0 0 -0 -1 -1 -2 -1 -1 -1 0 -1 -1 -1 -2 -2 -1 -3 -1 -5 3 -4 -7 -6 -1 -6 -0 -3 -2 -3 -1 -2 -2 2 -2 -7 -1 5 3 4 -4
-1 -1 -0 -0 0 0 0 1 0 0 -1 -1 0 -1 -2 -2 -1 -2 -1 -2 -1 -1 -6 -5 -6 -3 -6 1 -0 1 -7 -5 -4 1 -6 -5 2 -3 -5 -3 1 -5 -3 8 3 1 1
-1 -1 -0 0 0 0 -1 0 -0 -2 -2 -1 -1 -1 -1 0 -1 -1 -2 -3 0 -5 -4 -3 1 -0 1 -2 -4 -2 -6 -2 -6 -4 1 -4 -2 -2 -4 -1 2 -3 -9 -0 0 -2 -4
0 -0 -0 0 -1 0 -0 -0 1 0 -1 -0 -1 -1 -1 -1 -2 -2 -3 -2 -1 -13 -1 -0 -5 -4 -2 -4 -2 -5 -7 -7 -12 -11 -13 -2 -2 -1 0 -3 1 -6 -18 -8 -17 -11 -8
-0 1 1 0 0 -1 -1 -0 -0 -1 -1 -2 -0 -1 -1 -2 -2 -2 -3 -3 -10 -3 -4 -3 -2 -0 -3 -3 -3 -1 -3 -5 -2 -4 2 -3 -12 0 -0 -4 -0 -2 -4 -3 -1 -0 -7
-1 -0 0 0 1 -0 0 -0 -2 -1 -1 -1 -1 -1 -0 -1 -2 -3 -3 -8 -3 -0 -0 -1 0 -4 -2 -2 -2 -2 -2 -2 -4 -1 -7 -0 -7 -0 -0 1 -2 1 -7 1 4 2 2
1 0 -0 -1 -1 0 -0 -1 -2 -2 -1 -1 -2 -1 -0 -1 -3 -4 -3 -5 -2 -1 -2 -2 -2 -3 -4 -2 -1 -1 -6 -0 -2 -2 4 2 -11 -3 3 -0 0 -0 -2 -5 -4 -1 -3
-1 -0 -1 1 -0 -1 0 0 -0 -1 -2 -1 -1 -1 -1 -1 -3 -4 -4 -4 -3 -1 -1 -2 -1 -2 -2 -4 -1 -1 -1 1 1 1 1 1 -0 -5 3 2 -0 3 -2 -4 -1 0 1
-1 0 -1 -0 -0 0 -0 -0 -0 -1 -1 -1 -1 -0 -1 -1 -3 -3 -4 -1 0 -1 -2 -1 -1 -2 -1 -1 -2 -1 -1 -3 -3 -0 1 3 3 -6 -4 -0 -1 -2 3 3 1 -3 -3
0 0 1 -0 -1 -0 -0 -1 0 -2 -1 -1 -1 -1 -0 -1 -1 -2 -3 -2 -1 -2 -1 -3 -2 0 -0 -1 -2 -1 -2 -1 -1 -1 -1 -0 3 -6 -11 1 2 0 2 4 7 6 -5
-1 0 0 -0 -0 0 -1 -1 -0 -1 -2 -2 -4 -3 -1 0 -0 -2 -2 -3 -3 -2 -3 -3 -1 -2 -1 -3 -1 -2 -3 -3 -0 -1 -0 5 1 7 -6 -6 8 1 8 10 7 4 -1
-0 -0 0 -1 -1 0 -0 -1 -2 -2 -1 -2 -1 -3 -1 -4 -2 -2 -1 -1 -1 -2 -1 -1 -1 0 -1 -2 -3 -2 -1 -2 1 1 0 3 -4 1 2 1 4 1 6 4 5 3 6
0 -0 0 -0 -1 -1 0 0 0 -3 -1 -1 -2 -4 -2 -2 -1 -1 -2 -4 -2 -2 -1 -1 1 -2 -1 -1 0 -3 -1 4 -4 -1 2 1 -9 -2 -23 -1 4 -4 -0 2 7 1 -5
-1 -1 1 -0 -1 -1 -1 -0 -1 -3 -2 -2 0 -2 -1 -0 -1 -1 -2 -1 -1 -2 -1 -2 -1 0 -1 -0 0 1 1 1 -0 -2 -2 -1 0 1 -9 1 1 0 -1 0 0 9 1
1 0 1 -0 -1 -0 1 -1 -2 -4 -1 -3 1 1 -1 -3 -3 -2 -2 -2 -1 -1 -1 -1 -1 -1 -1 -0 0 -0 0 -2 -2 1 2 -1 2 2 -7 -9 -7 2 3 5 13 8 9
2 2 2 0 -0 -0 -1 1 -1 -1 -2 -3 -0 0 1 -2 -1 -0 -2 -3 -1 -1 -3 -3 -1 -1 -1 -0 -4 -1 -2 -2 -2 1 0 1 1 -3 -1 2 -5 -0 -2 -8 -2 -14 5
1 1 1 -0 -0 -1 -2 2 -1 -2 -0 -3 0 3 -1 -1 -2 1 -0 -2 -2 -5 -4 -1 0 0 -1 -2 -3 -2 -3 -5 0 2 0 2 -0 5 3 1 -0 2 -2 -3 -2 -4 9
0 1 2 2 -0 -1 -0 -0 -1 -0 1 -1 -0 1 -0 -2 -1 -2 -2 -2 -1 -2 -1 -1 -1 -1 -1 -1 -2 -0 -2 -2 -1 -1 -1 -4 -2 -2 0 -3 -4 -5 -11 -5 -13 -23 -6
2 -0 2 3 -2 1 -1 1 -1 0 -4 2 -0 -1 -2 0 -4 -4 -2 -2 -2 -3 -2 -1 -2 -2 -2 -1 -0 -2 -2 -1 -1 1 -2 -2 -2 -2 2 0 -6 9 -3 3 5 8 -9
-0 2 1 3 1 -0 -0 -0 2 -0 -1 2 1 1 -1 0 -2 -2 -1 -0 -1 -1 -2 -2 -2 -1 -1 -1 -1 -1 -1 -2 -1 -3 -0 -1 1 -4 -3 -13 0 1 6 2 3 2 -4
Height
3161 3160 3160 3160 3159 3158 3157 3156 3155 3154 3152 3151 3149 3147 3145 3143 3140 3137 3134 3131 3126 3122 3118 3115 3112 3110 3108 3106 3102 3096 3089 3086 3083 3073 3066 3061 3056 3053 3050 3050 3047 3048 3047 3046 3043 3042 3040
3162 3161 3161 3160 3159 3159 3158 3157 3156 3154 3153 3152 3150 3148 3146 3143 3140 3136 3133 3129 3124 3120 3116 3113 3111 3109 3107 3105 3099 3092 3085 3081 3076 3069 3061 3055 3051 3048 3047 3046 3045 3044 3042 3041 3040 3038 3035
3163 3162 3161 3161 3160 3159 3159 3158 3156 3155 3154 3153 3151 3149 3147 3143 3139 3135 3131 3128 3123 3118 3115 3113 3111 3108 3106 3103 3097 3091 3083 3072 3067 3062 3056 3051 3048 3047 3046 3043 3043 3042 3039 3038 3036 3034 3030
3163 3163 3162 3161 3161 3160 3159 3158 3157 3156 3155 3153 3151 3149 3147 3143 3139 3135 3130 3125 3121 3117 3114 3112 3110 3107 3104 3098 3090 3086 3087 3080 3069 3062 3056 3050 3048 3047 3045 3045 3043 3040 3036 3032 3031 3030 3024
3164 3163 3162 3162 3161 3160 3159 3158 3157 3156 3155 3154 3151 3149 3146 3142 3139 3134 3129 3124 3119 3116 3113 3110 3111 3107 3102 3099 3095 3085 3077 3071 3063 3057 3053 3050 3048 3047 3045 3041 3039 3036 3033 3030 3023 3023 3019
3164 3163 3162 3162 3161 3160 3160 3159 3158 3157 3156 3154 3152 3148 3146 3142 3138 3133 3128 3123 3118 3115 3112 3110 3110 3108 3103 3097 3090 3085 3077 3069 3061 3055 3053 3051 3048 3046 3044 3039 3040 3034 3030 3026 3022 3018 3011
3164 3163 3162 3161 3161 3161 3160 3159 3159 3158 3157 3155 3152 3149 3145 3141 3137 3132 3128 3123 3120 3115 3110 3109 3111 3107 3105 3097 3086 3080 3074 3068 3062 3058 3053 3050 3050 3046 3045 3042 3041 3037 3032 3023 3020 3015 3004
3163 3162 3162 3161 3161 3161 3160 3160 3159 3158 3157 3155 3153 3149 3145 3141 3137 3133 3128 3122 3117 3116 3111 3109 3107 3101 3095 3090 3084 3079 3073 3065 3057 3052 3051 3051 3048 3046 3045 3043 3040 3036 3029 3020 3010 3010 3002
3162 3162 3161 3161 3161 3160 3160 3160 3159 3158 3157 3155 3153 3149 3145 3141 3137 3132 3126 3121 3115 3111 3110 3110 3106 3100 3094 3088 3082 3076 3069 3060 3056 3054 3051 3050 3049 3046 3045 3040 3033 3031 3026 3020 3014 2994 2994
3162 3161 3161 3161 3161 3160 3160 3159 3159 3158 3157 3154 3152 3148 3145 3141 3139 3131 3125 3119 3114 3110 3109 3112 3105 3098 3098 3089 3081 3076 3071 3067 3061 3055 3052 3050 3048 3047 3044 3039 3033 3026 3022 3016 3008 3003 2997
3161 3161 3160 3161 3160 3160 3160 3159 3158 3157 3156 3154 3151 3148 3144 3139 3135 3130 3126 3119 3114 3111 3112 3113 3107 3102 3093 3093 3087 3080 3071 3066 3061 3056 3055 3051 3047 3046 3043 3039 3033 3028 3020 3010 3004 3000 2999
3159 3160 3160 3160 3160 3160 3159 3159 3158 3157 3155 3153 3151 3147 3143 3139 3134 3130 3124 3119 3116 3115 3113 3112 3108 3102 3099 3091 3084 3076 3071 3067 3062 3057 3054 3049 3047 3045 3042 3040 3032 3026 3016 3006 3002 3000 3001
3158 3158 3159 3158 3159 3159 3158 3158 3157 3156 3155 3152 3150 3146 3142 3139 3135 3130 3124 3120 3119 3119 3121 3115 3106 3098 3093 3088 3082 3075 3068 3062 3059 3054 3050 3048 3047 3045 3042 3035 3031 3026 3015 3006 3007 3006 3006
3157 3157 3157 3157 3157 3158 3158 3157 3156 3155 3154 3151 3149 3146 3142 3138 3134 3130 3125 3122 3120 3122 3118 3113 3106 3099 3094 3088 3081 3075 3072 3067 3063 3061 3056 3050 3045 3046 3043 3040 3034 3029 3028 3031 3034 3015 3002
3155 3156 3155 3156 3156 3156 3156 3155 3154 3154 3152 3150 3148 3145 3142 3138 3134 3130 3127 3122 3124 3120 3116 3111 3104 3098 3095 3091 3085 3077 3072 3070 3068 3065 3065 3056 3049 3045 3041 3038 3038 3033 3032 3032 3025 3016 3011
3153 3154 3154 3154 3154 3155 3154 3154 3153 3152 3150 3149 3147 3144 3141 3137 3133 3130 3127 3124 3122 3118 3114 3110 3105 3101 3096 3090 3084 3080 3075 3072 3071 3068 3065 3060 3049 3043 3041 3037 3036 3034 3034 3032 3029 3022 3011
3151 3151 3152 3152 3152 3153 3153 3153 3152 3151 3149 3148 3145 3142 3140 3137 3134 3130 3125 3124 3120 3117 3114 3110 3105 3101 3097 3090 3084 3080 3078 3075 3070 3068 3064 3058 3054 3044 3040 3037 3034 3033 3031 3031 3029 3026 3021
3148 3148 3149 3150 3150 3150 3151 3151 3150 3149 3148 3147 3144 3142 3139 3136 3134 3128 3125 3123 3120 3116 3113 3109 3105 3100 3095 3089 3084 3081 3080 3075 3071 3067 3061 3057 3050 3043 3037 3033 3031 3031 3029 3028 3026 3022 3018
3145 3146 3146 3147 3148 3148 3148 3149 3148 3147 3146 3145 3142 3140 3138 3135 3131 3127 3125 3123 3120 3115 3112 3108 3104 3101 3096 3091 3087 3081 3078 3074 3070 3065 3063 3058 3051 3042 3033 3033 3028 3028 3027 3026 3023 3018 3012
3141 3143 3143 3145 3145 3145 3146 3146 3146 3144 3144 3144 3142 3139 3136 3133 3130 3127 3124 3121 3118 3114 3110 3107 3104 3099 3094 3090 3086 3081 3077 3072 3067 3064 3061 3058 3051 3050 3044 3034 3031 3023 3021 3022 3018 3016 3006
3138 3139 3140 3141 3142 3143 3143 3143 3143 3142 3142 3142 3139 3137 3135 3132 3128 3126 3123 3120 3116 3112 3109 3105 3101 3097 3093 3088 3082 3077 3072 3070 3067 3063 3060 3056 3047 3043 3034 3026 3022 3019 3018 3015 3014 3012 3004
3133 3135 3137 3138 3139 3140 3141 3140 3140 3140 3139 3139 3138 3136 3133 3130 3127 3124 3122 3119 3115 3111 3109 3105 3100 3095 3091 3086 3082 3075 3071 3068 3065 3062 3059 3053 3046 3038 3024 3022 3020 3014 3014 3012 3011 3003 2989
3128 3131 3133 3134 3135 3137 3138 3138 3138 3138 3137 3135 3134 3133 3131 3129 3125 3123 3121 3117 3113 3110 3107 3103 3099 3094 3090 3086 3080 3075 3071 3067 3063 3059 3056 3052 3046 3037 3022 3019 3012 3009 3009 3010 3003 2995 2985
3123 3126 3129 3131 3132 3133 3135 3135 3135 3135 3134 3134 3131 3129 3127 3126 3124 3121 3118 3115 3112 3109 3106 3102 3097 3093 3090 3082 3077 3071 3067 3064 3062 3059 3056 3052 3046 3040 3028 3020 3015 3008 3008 3002 2993 2985 2980
3117 3120 3124 3126 3128 3129 3131 3132 3132 3132 3132 3130 3127 3125 3124 3123 3121 3118 3115 3113 3110 3107 3104 3099 3095 3092 3087 3082 3075 3070 3066 3064 3060 3058 3055 3051 3047 3042 3035 3026 3014 3011 3010 3002 2991 2980 2977
3111 3115 3118 3121 3123 3125 3126 3128 3129 3128 3128 3127 3124 3122 3121 3120 3118 3116 3112 3110 3107 3104 3101 3097 3092 3088 3084 3079 3075 3071 3068 3064 3059 3057 3053 3050 3047 3045 3038 3034 3022 3012 3009 3004 2994 2983 2979
3105 3108 3112 3115 3118 3119 3121 3123 3124 3125 3125 3124 3120 3120 3118 3116 3115 3113 3110 3107 3104 3101 3097 3093 3090 3087 3083 3079 3074 3073 3069 3066 3059 3054 3051 3048 3045 3043 3038 3033 3021 3017 3008 3002 2997 2994 2977
3098 3102 3105 3109 3114 3114 3116 3117 3118 3120 3121 3121 3115 3116 3116 3113 3111 3109 3106 3104 3101 3098 3095 3091 3089 3084 3081 3078 3074 3072 3067 3065 3060 3057 3052 3048 3045 3041 3038 3031 3021 3015 3005 3002 2997 2987 2978
3091 3094 3099 3102 3107 3108 3110 3112 3112 3115 3116 3116 3112 3110 3111 3110 3109 3105 3102 3100 3098 3094 3091 3088 3087 3084 3082 3078 3076 3072 3067 3064 3059 3055 3051 3048 3048 3045 3041 3030 3025 3016 3008 3003 2995 2984 2976